Date,TemperatureHighF,TemperatureAvgF,TemperatureLowF,DewpointHighF,DewpointAvgF,DewpointLowF,HumidityHigh,HumidityAvg,HumidityLow,PressureMaxIn,PressureMinIn,WindSpeedMaxMPH,WindSpeedAvgMPH,GustSpeedMaxMPH,PrecipitationSumIn
2013-9-1,96,79,67,90,77,66,98,95,56,29.73,29.65,7,2,0,0.00
2013-9-2,92,79,69,89,77,68,98,94,62,29.69,29.61,7,2,0,0.00
2013-9-3,86,75,65,77,69,62,98,84,50,29.84,29.62,14,4,0,0.00
2013-9-4,86,68,53,72,60,52,98,80,38,29.97,29.84,6,2,0,0.00
2013-9-5,84,69,55,79,63,53,98,84,51,30.03,29.90,12,3,0,0.00
2013-9-6,79,63,50,65,54,50,98,78,41,30.16,30.03,8,2,0,0.00
2013-9-7,84,64,47,76,59,46,98,85,51,30.04,29.82,8,2,0,0.00
2013-9-8,86,73,61,82,70,60,98,94,65,29.95,29.76,9,2,0,0.00
2013-9-9,79,68,55,78,67,54,98,98,93,30.10,29.96,8,3,0,0.00
2013-9-10,92,79,69,91,78,69,98,97,81,30.07,29.97,9,3,0,0.00
2013-9-11,93,81,71,92,80,71,98,95,63,30.05,29.90,9,2,0,0.00
2013-9-12,91,76,67,90,75,67,98,98,98,29.89,29.64,9,2,0,0.42
2013-9-13,78,68,59,73,63,54,98,87,47,29.81,29.58,16,4,0,0.02
2013-9-14,72,58,46,63,52,45,98,86,49,30.05,29.82,12,4,0,0.00
2013-9-15,79,60,40,69,54,40,98,84,52,30.13,29.97,8,2,0,0.00
2013-9-16,74,63,52,74,61,52,98,96,69,30.14,29.92,10,3,0,0.05
2013-9-17,71,56,43,59,50,42,98,84,42,30.32,30.14,9,4,0,0.00
2013-9-18,71,54,37,63,49,36,98,86,49,30.25,30.08,7,2,0,0.00
2013-9-19,80,61,43,75,59,42,98,94,64,30.09,29.97,8,2,0,0.00
2013-9-20,80,65,50,79,64,50,98,96,73,29.99,29.85,16,3,0,0.00
2013-9-21,75,65,58,75,64,57,98,98,98,29.86,29.57,11,4,0,1.18
2013-9-22,71,62,49,70,60,49,98,94,62,29.83,29.60,10,3,0,0.01
2013-9-23,69,55,43,59,51,42,98,87,54,29.98,29.83,12,3,0,0.00
2013-9-24,78,54,37,63,49,36,98,85,43,30.01,29.83,10,2,0,0.00
2013-9-25,78,57,41,68,51,40,98,83,41,29.88,29.76,7,1,0,0.00
2013-9-26,77,60,48,72,56,48,98,87,49,29.97,29.81,7,2,0,0.00
2013-9-27,74,61,50,74,60,49,98,98,98,30.14,29.97,6,1,0,0.00
2013-9-28,75,60,52,70,59,52,98,97,71,30.21,30.12,7,1,0,0.00
2013-9-29,74,58,44,72,57,44,98,97,63,30.11,29.95,6,1,0,0.00
2013-9-30,77,60,45,72,56,45,98,90,54,29.99,29.87,5,1,0,0.00